Overview Statistics Trail Chart Weather Telemetry Raw packets
 

This is the latest recevied weather packets stored in our database for station/object M0JUI-1. If no packets are shown the sender has not sent any weather packets the latest 10 day(s).

<< 104 105 106 107 108 109 110 >>
Time Temp. Humidity Pressure Rain* Wind** Luminosity Snow
1787855552 18.33° C 1% 1007.2 hPa 0 mm - 5 W/m² -
1787855252 18.33° C 1% 1007.2 hPa 0 mm - 4 W/m² -
1787854952 18.33° C 1% 1007.3 hPa 0 mm - 6 W/m² -
1787854652 18.33° C 1% 1007.4 hPa 0 mm - 6 W/m² -
1787854352 18.33° C 1% 1007.4 hPa 0 mm - 9 W/m² -
1787854052 18.33° C 1% 1007.5 hPa 0 mm - 16 W/m² -
1787853753 18.33° C 1% 1007.6 hPa 0 mm - 32 W/m² -
1787853154 18.89° C 1% 1007.7 hPa 0 mm - 57 W/m² -
1787852852 18.89° C 1% 1007.7 hPa 0 mm - 49 W/m² -
1787852552 18.89° C 1% 1007.6 hPa 0 mm - 23 W/m² -
1787852253 18.89° C 1% 1007.7 hPa 0 mm - 24 W/m² -
1787851952 18.89° C 1% 1007.8 hPa 0 mm - 86 W/m² -
1787851652 18.89° C 1% 1007.6 hPa 0 mm - 107 W/m² -
1787851352 18.89° C 1% 1007.4 hPa 0 mm - 75 W/m² -
1787851052 18.89° C 1% 1007.5 hPa 0 mm - 113 W/m² -
1787850752 18.89° C 1% 1007.7 hPa 0 mm - 95 W/m² -
1787850452 18.89° C 1% 1007.6 hPa 0 mm - 115 W/m² -
1787850153 18.89° C 1% 1007.6 hPa 0 mm - 113 W/m² -
1787849852 18.89° C 1% 1007.7 hPa 0 mm - 110 W/m² -
1787849552 18.89° C 1% 1007.6 hPa 0 mm - 104 W/m² -
1787849252 18.89° C 1% 1007.7 hPa 0 mm - 106 W/m² -
1787848952 19.44° C 1% 1007.8 hPa 0 mm - 115 W/m² -
1787848652 18.89° C 1% 1007.7 hPa 0 mm - 129 W/m² -
1787848352 18.89° C 2% 1007.8 hPa 0 mm - 110 W/m² -
1787848053 18.89° C 7% 1007.6 hPa 0 mm - 154 W/m² -

* Rain latest hour (hover to see other rain measurements)
** Current wind speed in m/s (hover to see current wind gust speed)